20.6°F
Current conditions from King Hill
Updated every 5 minutes
 
  Friday November 28, 2014

Station Historical Data
Daily Summary for June 27, 2012 Units:  English    Metric   Both
« Previous Day
Next Day »
Daily Weekly Monthly Yearly Custom
  High: Low: Average:
Temperature: 64.3 °F 55.5 °F 59.5 °F
Dew Point: 59.5 °F 53.7 °F 56.1 °F
Humidity: 96% 80% 89%
Wind Speed: 11.0mph 1.0mph 3.5mph
Wind Gust: 20.0mph - -
Wind- - WNW
Pressure: 29.70 in 29.53 in -
Precipitation: 0.50 in    
Historical Graphs
 
 
Tabular Data for June 27, 2012
Time Temperature Dew Point Pressure Wind Wind Speed Wind Gust Humidity Daily Rainfall
00:04 56.4 °F 55.3 °F 29.56 in NW 6.0 mph 15.0 mph 96% 0.01 in
00:09 56.4 °F 55.3 °F 29.55 in WNW 1.0 mph 15.0 mph 96% 0.01 in
00:14 56.4 °F 55.3 °F 29.56 in WNW 7.0 mph 13.0 mph 96% 0.01 in
00:19 56.4 °F 55.3 °F 29.55 in NW 6.0 mph 17.0 mph 96% 0.01 in
00:24 56.4 °F 55.3 °F 29.55 in NW 6.0 mph 17.0 mph 96% 0.02 in
00:29 56.4 °F 55.3 °F 29.55 in WNW 5.0 mph 15.0 mph 96% 0.02 in
00:34 56.4 °F 55.3 °F 29.55 in NW 6.0 mph 12.0 mph 96% 0.02 in
00:39 56.4 °F 55.3 °F 29.55 in NW 5.0 mph 14.0 mph 96% 0.02 in
00:44 56.5 °F 55.4 °F 29.55 in Calm   14.0 mph 96% 0.02 in
00:49 56.5 °F 55.4 °F 29.55 in NW 1.0 mph 9.0 mph 96% 0.03 in
00:54 56.5 °F 55.4 °F 29.54 in WNW 5.0 mph 11.0 mph 96% 0.08 in
00:59 56.5 °F 55.4 °F 29.54 in NW 5.0 mph 14.0 mph 96% 0.11 in
01:04 56.5 °F 55.4 °F 29.54 in NW 6.0 mph 14.0 mph 96% 0.12 in
01:09 56.6 °F 55.5 °F 29.54 in NW 4.0 mph 14.0 mph 96% 0.13 in
01:14 56.6 °F 55.5 °F 29.54 in WNW 6.0 mph 14.0 mph 96% 0.14 in
01:19 56.6 °F 55.5 °F 29.54 in NW 2.0 mph 14.0 mph 96% 0.14 in
01:24 56.6 °F 55.5 °F 29.54 in Calm   12.0 mph 96% 0.14 in
01:29 56.6 °F 55.5 °F 29.54 in NW 1.0 mph 11.0 mph 96% 0.15 in
01:34 56.7 °F 55.6 °F 29.54 in NW 5.0 mph 12.0 mph 96% 0.15 in
01:39 56.6 °F 55.5 °F 29.54 in WNW 5.0 mph 12.0 mph 96% 0.16 in
01:44 56.7 °F 55.6 °F 29.54 in NW 7.0 mph 13.0 mph 96% 0.16 in
01:49 56.7 °F 55.6 °F 29.54 in NW 4.0 mph 14.0 mph 96% 0.16 in
01:54 56.7 °F 55.6 °F 29.54 in NW 6.0 mph 15.0 mph 96% 0.16 in
01:59 56.7 °F 55.6 °F 29.54 in NW 4.0 mph 15.0 mph 96% 0.17 in
02:04 56.6 °F 55.5 °F 29.54 in NW 2.0 mph 13.0 mph 96% 0.17 in
02:09 56.7 °F 55.6 °F 29.54 in WNW 5.0 mph 13.0 mph 96% 0.18 in
02:14 56.7 °F 55.6 °F 29.54 in NW 3.0 mph 11.0 mph 96% 0.18 in
02:19 56.7 °F 55.6 °F 29.54 in NW 5.0 mph 13.0 mph 96% 0.18 in
02:24 56.7 °F 55.6 °F 29.54 in NW 4.0 mph 18.0 mph 96% 0.18 in
02:29 56.8 °F 55.7 °F 29.53 in WNW 6.0 mph 18.0 mph 96% 0.18 in
02:39 56.8 °F 55.7 °F 29.53 in Calm   10.0 mph 96% 0.20 in
02:44 56.8 °F 55.7 °F 29.53 in WNW 2.0 mph 11.0 mph 96% 0.20 in
02:49 56.7 °F 55.6 °F 29.53 in WNW 2.0 mph 11.0 mph 96% 0.20 in
02:54 56.7 °F 55.6 °F 29.53 in NW 3.0 mph 9.0 mph 96% 0.22 in
02:59 56.7 °F 55.6 °F 29.53 in Calm   9.0 mph 96% 0.22 in
03:04 56.6 °F 55.5 °F 29.53 in NW 3.0 mph 10.0 mph 96% 0.23 in
03:09 56.6 °F 55.5 °F 29.53 in NW 3.0 mph 10.0 mph 96% 0.24 in
03:14 56.6 °F 55.5 °F 29.53 in NW 4.0 mph 14.0 mph 96% 0.25 in
03:19 56.6 °F 55.5 °F 29.53 in NW 6.0 mph 14.0 mph 96% 0.26 in
03:24 56.6 °F 55.5 °F 29.53 in NW 7.0 mph 17.0 mph 96% 0.28 in
03:29 56.6 °F 55.5 °F 29.53 in NW 5.0 mph 17.0 mph 96% 0.30 in
03:34 56.6 °F 55.5 °F 29.53 in NW 3.0 mph 13.0 mph 96% 0.31 in
03:39 56.6 °F 55.5 °F 29.53 in NW 4.0 mph 14.0 mph 96% 0.32 in
03:49 56.5 °F 55.4 °F 29.53 in WNW 2.0 mph 10.0 mph 96% 0.32 in
03:54 56.5 °F 55.4 °F 29.53 in WNW 2.0 mph 10.0 mph 96% 0.32 in
03:59 56.5 °F 55.4 °F 29.53 in Calm   10.0 mph 96% 0.33 in
04:04 56.5 °F 55.4 °F 29.53 in WNW 2.0 mph 10.0 mph 96% 0.33 in
04:09 56.5 °F 55.4 °F 29.53 in NW 4.0 mph 11.0 mph 96% 0.33 in
04:19 56.4 °F 55.3 °F 29.54 in WNW 4.0 mph 14.0 mph 96% 0.33 in
04:24 56.4 °F 55.3 °F 29.54 in Calm   14.0 mph 96% 0.33 in
04:29 56.4 °F 55.3 °F 29.54 in NW 1.0 mph 12.0 mph 96% 0.34 in
04:34 56.3 °F 55.2 °F 29.54 in NW 3.0 mph 17.0 mph 96% 0.36 in
04:39 56.2 °F 55.1 °F 29.54 in NW 3.0 mph 17.0 mph 96% 0.37 in
04:44 56.2 °F 55.1 °F 29.54 in WNW 5.0 mph 18.0 mph 96% 0.38 in
04:54 56.1 °F 55.0 °F 29.54 in NW 2.0 mph 10.0 mph 96% 0.38 in
04:59 56.1 °F 55.0 °F 29.54 in NW 1.0 mph 10.0 mph 96% 0.38 in
05:04 56.1 °F 55.0 °F 29.54 in WNW 1.0 mph 10.0 mph 96% 0.38 in
05:09 56.1 °F 55.0 °F 29.54 in Calm   10.0 mph 96% 0.38 in
05:14 56.0 °F 54.9 °F 29.54 in NW 1.0 mph 9.0 mph 96% 0.39 in
05:19 56.0 °F 54.9 °F 29.55 in NW 2.0 mph 9.0 mph 96% 0.40 in
05:24 56.0 °F 54.9 °F 29.55 in NW 5.0 mph 10.0 mph 96% 0.40 in
05:29 55.9 °F 54.8 °F 29.55 in WNW 6.0 mph 12.0 mph 96% 0.40 in
05:34 55.9 °F 54.8 °F 29.55 in NW 4.0 mph 12.0 mph 96% 0.40 in
05:39 55.9 °F 54.8 °F 29.55 in NW 3.0 mph 10.0 mph 96% 0.41 in
05:44 55.9 °F 54.8 °F 29.55 in WNW 3.0 mph 9.0 mph 96% 0.41 in
05:49 55.9 °F 54.8 °F 29.55 in NW 5.0 mph 12.0 mph 96% 0.41 in
05:54 55.9 °F 54.8 °F 29.55 in WNW 6.0 mph 12.0 mph 96% 0.42 in
05:59 55.9 °F 54.8 °F 29.56 in WNW 5.0 mph 10.0 mph 96% 0.42 in
06:04 55.9 °F 54.8 °F 29.56 in NW 2.0 mph 11.0 mph 96% 0.42 in
06:09 55.8 °F 54.7 °F 29.56 in NW 5.0 mph 12.0 mph 96% 0.42 in
06:14 55.8 °F 54.7 °F 29.56 in NW 4.0 mph 15.0 mph 96% 0.42 in
06:19 55.7 °F 54.6 °F 29.56 in WNW 2.0 mph 15.0 mph 96% 0.42 in
06:24 55.7 °F 54.6 °F 29.56 in NW 2.0 mph 10.0 mph 96% 0.42 in
06:34 55.6 °F 54.5 °F 29.56 in WNW 3.0 mph 14.0 mph 96% 0.42 in
06:39 55.6 °F 54.5 °F 29.56 in WNW 3.0 mph 11.0 mph 96% 0.43 in
06:44 55.5 °F 54.4 °F 29.56 in WNW 4.0 mph 11.0 mph 96% 0.43 in
06:49 55.5 °F 54.4 °F 29.56 in WNW 3.0 mph 11.0 mph 96% 0.43 in
06:54 55.5 °F 54.4 °F 29.57 in NW 2.0 mph 10.0 mph 96% 0.43 in
06:59 55.5 °F 54.4 °F 29.57 in WNW 4.0 mph 10.0 mph 96% 0.43 in
07:04 55.6 °F 54.2 °F 29.57 in NW 4.0 mph 9.0 mph 95% 0.43 in
07:09 55.6 °F 54.2 °F 29.57 in NW 3.0 mph 8.0 mph 95% 0.43 in
07:14 55.6 °F 54.2 °F 29.57 in NW 2.0 mph 9.0 mph 95% 0.43 in
07:19 55.7 °F 54.3 °F 29.57 in NW 1.0 mph 9.0 mph 95% 0.43 in
07:24 55.7 °F 54.3 °F 29.57 in NW 3.0 mph 10.0 mph 95% 0.43 in
07:29 55.8 °F 54.4 °F 29.57 in NW 4.0 mph 10.0 mph 95% 0.43 in
07:34 55.8 °F 54.4 °F 29.57 in NW 2.0 mph 9.0 mph 95% 0.44 in
07:39 55.7 °F 54.3 °F 29.58 in WNW 3.0 mph 9.0 mph 95% 0.44 in
07:44 55.8 °F 54.4 °F 29.58 in WNW 1.0 mph 9.0 mph 95% 0.44 in
07:49 55.9 °F 54.5 °F 29.58 in NW 2.0 mph 9.0 mph 95% 0.44 in
07:54 56.0 °F 54.3 °F 29.58 in NW 2.0 mph 9.0 mph 94% 0.44 in
07:59 56.2 °F 54.5 °F 29.58 in NW 2.0 mph 7.0 mph 94% 0.44 in
08:04 56.4 °F 54.7 °F 29.58 in NW 2.0 mph 7.0 mph 94% 0.44 in
08:09 56.4 °F 54.7 °F 29.58 in NW 2.0 mph 8.0 mph 94% 0.44 in
08:14 56.3 °F 54.3 °F 29.58 in NW 6.0 mph 14.0 mph 93% 0.44 in
08:19 56.3 °F 54.0 °F 29.58 in NW 3.0 mph 14.0 mph 92% 0.44 in
08:24 56.3 °F 54.0 °F 29.59 in NW 4.0 mph 10.0 mph 92% 0.44 in
08:29 56.4 °F 54.1 °F 29.59 in NW 1.0 mph 10.0 mph 92% 0.44 in
08:34 56.3 °F 53.7 °F 29.59 in WNW 2.0 mph 8.0 mph 91% 0.44 in
08:39 56.4 °F 53.8 °F 29.59 in Calm   8.0 mph 91% 0.44 in
08:44 56.3 °F 53.7 °F 29.59 in NW 2.0 mph 9.0 mph 91% 0.44 in
08:49 56.3 °F 53.7 °F 29.59 in WNW 1.0 mph 9.0 mph 91% 0.44 in
08:54 56.4 °F 53.8 °F 29.59 in Calm   8.0 mph 91% 0.44 in
08:59 56.4 °F 53.8 °F 29.59 in WNW 6.0 mph 10.0 mph 91% 0.44 in
09:04 56.5 °F 53.9 °F 29.59 in WNW 1.0 mph 10.0 mph 91% 0.44 in
09:09 56.7 °F 54.1 °F 29.59 in WNW 1.0 mph 8.0 mph 91% 0.44 in
09:14 56.8 °F 54.2 °F 29.59 in WNW 3.0 mph 10.0 mph 91% 0.44 in
09:19 56.9 °F 54.0 °F 29.59 in WNW 2.0 mph 10.0 mph 90% 0.44 in
09:24 57.1 °F 54.2 °F 29.59 in Calm   9.0 mph 90% 0.44 in
09:29 57.3 °F 54.4 °F 29.59 in Calm   9.0 mph 90% 0.44 in
09:34 57.3 °F 54.1 °F 29.60 in WNW 2.0 mph 9.0 mph 89% 0.44 in
09:39 57.4 °F 54.2 °F 29.60 in West 1.0 mph 6.0 mph 89% 0.44 in
09:44 57.5 °F 54.0 °F 29.60 in NW 4.0 mph 7.0 mph 88% 0.44 in
09:49 57.5 °F 54.0 °F 29.60 in WNW 2.0 mph 7.0 mph 88% 0.44 in
09:54 57.5 °F 54.0 °F 29.60 in NW 5.0 mph 9.0 mph 88% 0.44 in
09:59 57.6 °F 54.1 °F 29.61 in WNW 3.0 mph 9.0 mph 88% 0.44 in
10:04 57.7 °F 54.2 °F 29.61 in NW 3.0 mph 10.0 mph 88% 0.44 in
10:09 57.8 °F 54.0 °F 29.61 in NW 1.0 mph 10.0 mph 87% 0.44 in
10:14 58.0 °F 54.2 °F 29.61 in NW 1.0 mph 8.0 mph 87% 0.44 in
10:19 58.1 °F 54.3 °F 29.61 in Calm   8.0 mph 87% 0.44 in
10:24 58.2 °F 54.4 °F 29.61 in Calm   6.0 mph 87% 0.44 in
10:34 58.1 °F 53.9 °F 29.61 in WNW 1.0 mph 9.0 mph 86% 0.44 in
10:39 58.2 °F 54.4 °F 29.61 in Calm   9.0 mph 87% 0.44 in
10:44 58.3 °F 54.5 °F 29.61 in Calm   5.0 mph 87% 0.44 in
10:49 58.3 °F 54.5 °F 29.61 in Calm     87% 0.44 in
10:54 58.4 °F 54.5 °F 29.61 in Calm   6.0 mph 87% 0.44 in
10:59 58.3 °F 54.5 °F 29.61 in Calm   6.0 mph 87% 0.44 in
11:04 58.3 °F 54.8 °F 29.61 in Calm     88% 0.44 in
11:14 58.5 °F 55.3 °F 29.61 in West 1.0 mph 5.0 mph 89% 0.46 in
11:19 58.2 °F 55.0 °F 29.62 in WNW 4.0 mph 11.0 mph 89% 0.46 in
11:24 58.1 °F 54.9 °F 29.62 in NW 3.0 mph 13.0 mph 89% 0.46 in
11:29 58.1 °F 54.9 °F 29.62 in NW 5.0 mph 13.0 mph 89% 0.47 in
11:34 57.8 °F 54.6 °F 29.62 in WNW 6.0 mph 17.0 mph 89% 0.48 in
11:39 57.9 °F 55.0 °F 29.62 in WNW 5.0 mph 17.0 mph 90% 0.48 in
11:44 58.0 °F 55.4 °F 29.62 in NW 8.0 mph 16.0 mph 91% 0.48 in
11:49 58.3 °F 55.7 °F 29.62 in WNW 7.0 mph 16.0 mph 91% 0.48 in
11:54 58.7 °F 56.1 °F 29.62 in NW 5.0 mph 15.0 mph 91% 0.48 in
11:59 59.0 °F 56.7 °F 29.62 in NW 8.0 mph 14.0 mph 92% 0.48 in
12:04 58.9 °F 56.3 °F 29.62 in WNW 6.0 mph 19.0 mph 91% 0.49 in
12:09 59.0 °F 56.4 °F 29.62 in NW 4.0 mph 19.0 mph 91% 0.49 in
12:14 59.0 °F 56.1 °F 29.62 in WNW 3.0 mph 15.0 mph 90% 0.49 in
12:19 59.0 °F 56.4 °F 29.62 in WNW 1.0 mph 15.0 mph 91% 0.49 in
12:24 59.3 °F 56.7 °F 29.62 in NW 2.0 mph 13.0 mph 91% 0.49 in
12:29 59.5 °F 56.6 °F 29.62 in NW 2.0 mph 6.0 mph 90% 0.49 in
12:34 59.7 °F 56.8 °F 29.62 in WNW 2.0 mph 11.0 mph 90% 0.49 in
12:39 59.8 °F 56.9 °F 29.62 in NW 3.0 mph 12.0 mph 90% 0.49 in
12:44 59.9 °F 56.3 °F 29.62 in NW 2.0 mph 13.0 mph 88% 0.49 in
12:49 60.2 °F 56.6 °F 29.62 in NW 5.0 mph 13.0 mph 88% 0.49 in
12:54 60.5 °F 56.6 °F 29.61 in WNW 1.0 mph 13.0 mph 87% 0.49 in
12:59 60.7 °F 57.1 °F 29.62 in Calm   6.0 mph 88% 0.49 in
13:04 60.8 °F 56.6 °F 29.62 in NW 4.0 mph 11.0 mph 86% 0.49 in
13:09 60.7 °F 56.2 °F 29.61 in NW 6.0 mph 14.0 mph 85% 0.49 in
13:14 60.7 °F 56.2 °F 29.61 in WNW 1.0 mph 14.0 mph 85% 0.49 in
13:19 60.8 °F 56.3 °F 29.61 in West 1.0 mph 13.0 mph 85% 0.49 in
13:24 60.8 °F 56.3 °F 29.61 in NW 2.0 mph 11.0 mph 85% 0.49 in
13:29 60.9 °F 56.7 °F 29.62 in Calm   11.0 mph 86% 0.49 in
13:34 60.8 °F 56.3 °F 29.62 in WNW 5.0 mph 10.0 mph 85% 0.49 in
13:39 60.9 °F 56.4 °F 29.61 in NW 1.0 mph 10.0 mph 85% 0.49 in
13:44 60.9 °F 56.4 °F 29.62 in NW 2.0 mph 10.0 mph 85% 0.49 in
13:49 60.9 °F 56.4 °F 29.62 in WNW 1.0 mph 9.0 mph 85% 0.49 in
13:54 60.9 °F 56.7 °F 29.62 in WNW 1.0 mph 8.0 mph 86% 0.49 in
13:59 60.9 °F 56.4 °F 29.62 in NW 3.0 mph 13.0 mph 85% 0.49 in
14:04 61.0 °F 56.8 °F 29.62 in NW 2.0 mph 13.0 mph 86% 0.49 in
14:09 61.2 °F 57.0 °F 29.62 in WNW 3.0 mph 12.0 mph 86% 0.49 in
14:14 61.5 °F 57.3 °F 29.62 in WNW 4.0 mph 15.0 mph 86% 0.49 in
14:19 61.9 °F 57.3 °F 29.62 in NW 4.0 mph 15.0 mph 85% 0.49 in
14:24 62.1 °F 57.2 °F 29.62 in NW 2.0 mph 10.0 mph 84% 0.49 in
14:29 62.5 °F 58.3 °F 29.62 in NW 1.0 mph 10.0 mph 86% 0.50 in
14:34 62.9 °F 58.3 °F 29.62 in NW 3.0 mph 13.0 mph 85% 0.50 in
14:39 63.0 °F 58.1 °F 29.62 in WNW 6.0 mph 16.0 mph 84% 0.50 in
14:44 63.2 °F 58.6 °F 29.63 in NW 4.0 mph 16.0 mph 85% 0.50 in
14:49 63.3 °F 58.7 °F 29.62 in WNW 5.0 mph 15.0 mph 85% 0.50 in
14:54 63.1 °F 58.5 °F 29.63 in NW 5.0 mph 12.0 mph 85% 0.50 in
14:59 63.0 °F 58.4 °F 29.63 in WNW 4.0 mph 12.0 mph 85% 0.50 in
15:04 63.2 °F 58.0 °F 29.63 in NW 7.0 mph 17.0 mph 83% 0.50 in
15:09 63.5 °F 58.2 °F 29.63 in NW 7.0 mph 19.0 mph 83% 0.50 in
15:14 63.7 °F 57.8 °F 29.63 in NW 11.0 mph 19.0 mph 81% 0.50 in
15:19 64.0 °F 58.4 °F 29.63 in NW 4.0 mph 19.0 mph 82% 0.50 in
15:24 64.1 °F 58.5 °F 29.63 in WNW 7.0 mph 14.0 mph 82% 0.50 in
15:29 64.0 °F 58.1 °F 29.63 in WNW 8.0 mph 20.0 mph 81% 0.50 in
15:34 64.2 °F 58.6 °F 29.63 in WNW 2.0 mph 20.0 mph 82% 0.50 in
15:39 64.3 °F 58.7 °F 29.63 in WNW 5.0 mph 19.0 mph 82% 0.50 in
15:44 64.1 °F 58.2 °F 29.64 in WNW 6.0 mph 16.0 mph 81% 0.50 in
15:49 64.0 °F 57.7 °F 29.64 in WNW 10.0 mph 19.0 mph 80% 0.50 in
15:54 64.1 °F 58.2 °F 29.64 in WNW 8.0 mph 19.0 mph 81% 0.50 in
15:59 64.3 °F 58.4 °F 29.64 in NW 4.0 mph 19.0 mph 81% 0.50 in
16:04 64.2 °F 58.3 °F 29.64 in NW 3.0 mph 19.0 mph 81% 0.50 in
16:09 63.9 °F 58.0 °F 29.64 in WNW 7.0 mph 15.0 mph 81% 0.50 in
16:14 63.6 °F 57.7 °F 29.65 in NW 6.0 mph 17.0 mph 81% 0.50 in
16:19 63.3 °F 57.4 °F 29.65 in WNW 8.0 mph 19.0 mph 81% 0.50 in
16:24 63.0 °F 58.1 °F 29.65 in NW 5.0 mph 19.0 mph 84% 0.50 in
16:29 62.7 °F 57.8 °F 29.65 in WNW 3.0 mph 12.0 mph 84% 0.50 in
16:34 62.9 °F 58.3 °F 29.65 in WNW 5.0 mph 12.0 mph 85% 0.50 in
16:39 62.9 °F 58.3 °F 29.65 in NW 5.0 mph 13.0 mph 85% 0.50 in
16:44 63.0 °F 58.4 °F 29.65 in WNW 2.0 mph 13.0 mph 85% 0.50 in
16:49 63.1 °F 58.5 °F 29.65 in WNW 4.0 mph 12.0 mph 85% 0.50 in
16:54 63.0 °F 58.7 °F 29.65 in WNW 3.0 mph 12.0 mph 86% 0.50 in
16:59 63.0 °F 59.1 °F 29.65 in WNW 4.0 mph 11.0 mph 87% 0.50 in
17:04 63.2 °F 59.3 °F 29.65 in Calm   9.0 mph 87% 0.50 in
17:09 63.4 °F 59.5 °F 29.65 in WNW 1.0 mph 8.0 mph 87% 0.50 in
17:14 63.4 °F 59.1 °F 29.65 in Calm   8.0 mph 86% 0.50 in
17:19 63.6 °F 59.3 °F 29.65 in NW 1.0 mph 8.0 mph 86% 0.50 in
17:24 63.6 °F 59.0 °F 29.65 in WNW 3.0 mph 9.0 mph 85% 0.50 in
17:29 63.5 °F 58.9 °F 29.65 in NW 1.0 mph 11.0 mph 85% 0.50 in
17:34 63.4 °F 58.5 °F 29.65 in WNW 4.0 mph 11.0 mph 84% 0.50 in
17:39 63.5 °F 58.6 °F 29.65 in WNW 2.0 mph 10.0 mph 84% 0.50 in
17:44 63.7 °F 58.4 °F 29.65 in West 4.0 mph 10.0 mph 83% 0.50 in
17:49 63.8 °F 58.5 °F 29.65 in WNW 5.0 mph 12.0 mph 83% 0.50 in
17:54 63.9 °F 58.3 °F 29.65 in WNW 6.0 mph 12.0 mph 82% 0.50 in
17:59 63.9 °F 58.3 °F 29.65 in NW 2.0 mph 12.0 mph 82% 0.50 in
18:04 63.8 °F 58.2 °F 29.65 in WNW 2.0 mph 10.0 mph 82% 0.50 in
18:09 63.7 °F 57.8 °F 29.65 in WNW 5.0 mph 12.0 mph 81% 0.50 in
18:14 63.7 °F 57.8 °F 29.65 in WNW 5.0 mph 12.0 mph 81% 0.50 in
18:19 63.7 °F 58.1 °F 29.65 in West 3.0 mph 12.0 mph 82% 0.50 in
18:24 63.6 °F 57.7 °F 29.66 in WNW 3.0 mph 13.0 mph 81% 0.50 in
18:29 63.7 °F 58.4 °F 29.66 in West 2.0 mph 13.0 mph 83% 0.50 in
18:34 63.6 °F 57.7 °F 29.66 in WNW 5.0 mph 9.0 mph 81% 0.50 in
18:39 63.7 °F 58.1 °F 29.66 in West 1.0 mph 9.0 mph 82% 0.50 in
18:44 63.7 °F 58.1 °F 29.66 in WNW 1.0 mph 8.0 mph 82% 0.50 in
18:49 63.7 °F 58.1 °F 29.66 in Calm   7.0 mph 82% 0.50 in
18:54 63.7 °F 57.8 °F 29.66 in WNW 5.0 mph 9.0 mph 81% 0.50 in
18:59 63.8 °F 57.5 °F 29.66 in NW 2.0 mph 9.0 mph 80% 0.50 in
19:04 63.7 °F 57.8 °F 29.66 in WNW 1.0 mph 8.0 mph 81% 0.50 in
19:09 63.6 °F 57.7 °F 29.67 in Calm   11.0 mph 81% 0.50 in
19:14 63.6 °F 57.7 °F 29.67 in West 1.0 mph 11.0 mph 81% 0.50 in
19:19 63.5 °F 57.6 °F 29.66 in WNW 2.0 mph 8.0 mph 81% 0.50 in
19:24 63.4 °F 57.5 °F 29.67 in West 2.0 mph 7.0 mph 81% 0.50 in
19:29 63.4 °F 57.5 °F 29.67 in WNW 7.0 mph 12.0 mph 81% 0.50 in
19:34 63.4 °F 57.1 °F 29.66 in West 4.0 mph 12.0 mph 80% 0.50 in
19:39 63.4 °F 57.5 °F 29.67 in WNW 5.0 mph 12.0 mph 81% 0.50 in
19:44 63.4 °F 57.1 °F 29.67 in WNW 4.0 mph 9.0 mph 80% 0.50 in
19:49 63.2 °F 56.9 °F 29.67 in WNW 3.0 mph 11.0 mph 80% 0.50 in
19:54 63.2 °F 56.9 °F 29.67 in WNW 5.0 mph 11.0 mph 80% 0.50 in
19:59 63.1 °F 56.8 °F 29.67 in WNW 4.0 mph 11.0 mph 80% 0.50 in
20:04 63.0 °F 56.7 °F 29.67 in WNW 2.0 mph 10.0 mph 80% 0.50 in
20:09 62.9 °F 56.6 °F 29.67 in NW 2.0 mph 10.0 mph 80% 0.50 in
20:14 62.8 °F 56.9 °F 29.67 in West 1.0 mph 7.0 mph 81% 0.50 in
20:19 62.8 °F 56.9 °F 29.67 in Calm   9.0 mph 81% 0.50 in
20:24 62.8 °F 56.5 °F 29.67 in WNW 4.0 mph 9.0 mph 80% 0.50 in
20:29 62.8 °F 56.5 °F 29.68 in WNW 1.0 mph 9.0 mph 80% 0.50 in
20:34 62.8 °F 56.5 °F 29.68 in Calm   9.0 mph 80% 0.50 in
20:39 62.7 °F 56.8 °F 29.68 in Calm   9.0 mph 81% 0.50 in
20:44 62.5 °F 56.6 °F 29.68 in Calm   9.0 mph 81% 0.50 in
20:49 62.3 °F 56.4 °F 29.68 in WNW 2.0 mph 8.0 mph 81% 0.50 in
20:54 62.1 °F 56.5 °F 29.68 in WNW 2.0 mph 8.0 mph 82% 0.50 in
20:59 62.0 °F 56.4 °F 29.68 in Calm   8.0 mph 82% 0.50 in
21:04 61.8 °F 56.6 °F 29.68 in WNW 1.0 mph 5.0 mph 83% 0.50 in
21:09 61.7 °F 56.5 °F 29.68 in Calm   6.0 mph 83% 0.50 in
21:14 61.6 °F 56.4 °F 29.68 in Calm   6.0 mph 83% 0.50 in
21:19 61.5 °F 56.3 °F 29.69 in Calm   4.0 mph 83% 0.50 in
21:24 61.6 °F 56.4 °F 29.69 in Calm   6.0 mph 83% 0.50 in
21:29 61.6 °F 56.4 °F 29.69 in Calm   6.0 mph 83% 0.50 in
21:34 61.6 °F 56.4 °F 29.69 in Calm   6.0 mph 83% 0.50 in
21:39 61.6 °F 56.4 °F 29.69 in Calm   6.0 mph 83% 0.50 in
21:44 61.5 °F 56.6 °F 29.70 in Calm   7.0 mph 84% 0.50 in
21:49 61.5 °F 56.6 °F 29.70 in West 1.0 mph 9.0 mph 84% 0.50 in
21:54 61.3 °F 56.4 °F 29.70 in NW 1.0 mph 9.0 mph 84% 0.50 in
21:59 61.2 °F 56.7 °F 29.70 in West 3.0 mph 8.0 mph 85% 0.50 in
22:04 61.2 °F 56.7 °F 29.70 in Calm   8.0 mph 85% 0.50 in
22:09 61.0 °F 56.5 °F 29.70 in Calm   5.0 mph 85% 0.50 in
22:14 60.8 °F 56.3 °F 29.70 in Calm   2.0 mph 85% 0.50 in
22:19 60.7 °F 56.5 °F 29.70 in Calm   4.0 mph 86% 0.50 in
22:24 60.6 °F 56.4 °F 29.70 in Calm   4.0 mph 86% 0.50 in
22:29 60.5 °F 56.3 °F 29.70 in Calm     86% 0.50 in
22:34 60.3 °F 56.4 °F 29.70 in Calm     87% 0.50 in
22:39 60.2 °F 56.3 °F 29.70 in Calm   1.0 mph 87% 0.50 in
22:44 60.1 °F 56.2 °F 29.70 in Calm   1.0 mph 87% 0.50 in
22:49 60.2 °F 56.3 °F 29.69 in Calm   7.0 mph 87% 0.50 in
22:54 60.3 °F 56.1 °F 29.69 in Calm   7.0 mph 86% 0.50 in
22:59 60.4 °F 56.2 °F 29.69 in Calm   1.0 mph 86% 0.50 in
23:04 60.5 °F 56.3 °F 29.69 in Calm   3.0 mph 86% 0.50 in
23:14 60.5 °F 56.0 °F 29.70 in West 1.0 mph 5.0 mph 85% 0.50 in
23:19 60.5 °F 56.0 °F 29.70 in Calm   5.0 mph 85% 0.50 in
23:24 60.7 °F 56.2 °F 29.70 in WNW 2.0 mph 6.0 mph 85% 0.50 in
23:29 60.9 °F 56.0 °F 29.69 in Calm   8.0 mph 84% 0.50 in
23:34 60.9 °F 56.0 °F 29.70 in Calm   8.0 mph 84% 0.50 in
23:39 61.1 °F 56.2 °F 29.70 in WNW 2.0 mph 10.0 mph 84% 0.50 in
23:44 61.2 °F 56.3 °F 29.69 in WSW 1.0 mph 10.0 mph 84% 0.50 in
23:49 61.2 °F 56.0 °F 29.69 in WNW 1.0 mph 9.0 mph 83% 0.50 in
23:54 61.1 °F 55.9 °F 29.69 in WNW 1.0 mph 9.0 mph 83% 0.50 in
23:59 61.1 °F 56.2 °F 29.69 in West 3.0 mph 6.0 mph 84% 0.50 in
Westford Weather
Compliments of Weather Underground

 
 
Current Radar Loop:

Copyright © WestfordWeather.net 2007-2014. All rights reserved.